Time,TemperatureF,DewpointF,PressureIn,WindDirection,WindDirectionDegrees,WindSpeedMPH,WindSpeedGustMPH,Humidity,HourlyPrecipIn,Conditions,Clouds,dailyrainin,SoftwareType,DateUTC
2013-02-12 00:00:00,38.0,38.0,29.13,North,360,4.0,9.0,100,0.00,,,0.00,Rainwise IP-100,2013-02-12 05:00:00,
2013-02-12 00:05:00,38.0,38.0,29.13,North,360,2.0,8.0,100,0.00,,,0.00,Rainwise IP-100,2013-02-12 05:05:00,
2013-02-12 00:10:00,37.0,37.0,29.13,West,270,4.0,6.0,100,0.00,,,0.00,Rainwise IP-100,2013-02-12 05:10:00,
2013-02-12 00:15:00,37.0,37.0,29.13,North,360,2.0,6.0,100,0.00,,,0.00,Rainwise IP-100,2013-02-12 05:15:00,
2013-02-12 00:20:00,37.0,37.0,29.13,North,360,2.0,6.0,100,0.00,,,0.00,Rainwise IP-100,2013-02-12 05:20:00,
2013-02-12 00:25:00,37.0,37.0,29.11,West,270,4.0,8.0,100,0.00,,,0.00,Rainwise IP-100,2013-02-12 05:25:00,
2013-02-12 00:30:00,37.0,37.0,29.11,West,270,5.0,8.0,100,0.00,,,0.00,Rainwise IP-100,2013-02-12 05:30:00,
2013-02-12 00:34:00,37.0,37.0,29.11,West,270,3.0,7.0,100,0.00,,,0.00,Rainwise IP-100,2013-02-12 05:34:00,
2013-02-12 00:39:00,37.0,37.0,29.11,West,270,3.0,8.0,100,0.00,,,0.00,Rainwise IP-100,2013-02-12 05:39:00,
2013-02-12 00:44:00,37.0,37.0,29.11,WSW,247,0.0,7.0,100,0.00,,,0.00,Rainwise IP-100,2013-02-12 05:44:00,
2013-02-12 00:49:00,37.0,37.0,29.11,West,270,3.0,9.0,100,0.00,,,0.00,Rainwise IP-100,2013-02-12 05:49:00,
2013-02-12 00:54:00,36.0,36.0,29.10,West,270,3.0,6.0,100,0.00,,,0.00,Rainwise IP-100,2013-02-12 05:54:00,
2013-02-12 00:59:00,36.0,36.0,29.10,West,270,1.0,4.0,100,0.00,,,0.00,Rainwise IP-100,2013-02-12 05:59:00,
2013-02-12 01:04:00,36.0,36.0,29.10,WSW,247,1.0,3.0,100,0.00,,,0.00,Rainwise IP-100,2013-02-12 06:04:00,
2013-02-12 01:09:00,36.0,36.0,29.10,West,270,4.0,5.0,100,0.00,,,0.00,Rainwise IP-100,2013-02-12 06:09:00,
2013-02-12 01:14:00,36.0,36.0,29.10,West,270,4.0,6.0,100,0.00,,,0.00,Rainwise IP-100,2013-02-12 06:14:00,
2013-02-12 01:19:00,36.0,36.0,29.10,West,270,5.0,9.0,100,0.00,,,0.00,Rainwise IP-100,2013-02-12 06:19:00,
2013-02-12 01:20:00,36.0,36.0,29.10,West,270,8.0,9.0,100,0.00,,,0.00,Rainwise IP-100,2013-02-12 06:20:00,
2013-02-12 01:25:00,36.0,36.0,29.10,West,270,4.0,9.0,100,0.00,,,0.00,Rainwise IP-100,2013-02-12 06:25:00,
2013-02-12 01:30:00,36.0,36.0,29.10,West,270,7.0,7.0,100,0.00,,,0.00,Rainwise IP-100,2013-02-12 06:30:00,
2013-02-12 01:35:00,36.0,36.0,29.10,West,270,3.0,7.0,100,0.00,,,0.00,Rainwise IP-100,2013-02-12 06:35:00,
2013-02-12 01:40:00,35.0,35.0,29.09,WSW,247,6.0,8.0,100,0.00,,,0.00,Rainwise IP-100,2013-02-12 06:40:00,
2013-02-12 01:45:00,35.0,35.0,29.09,West,270,6.0,8.0,100,0.00,,,0.00,Rainwise IP-100,2013-02-12 06:45:00,
2013-02-12 01:50:00,35.0,35.0,29.09,West,270,6.0,8.0,100,0.00,,,0.00,Rainwise IP-100,2013-02-12 06:50:00,
2013-02-12 01:55:00,35.0,35.0,29.09,West,270,6.0,8.0,100,0.00,,,0.00,Rainwise IP-100,2013-02-12 06:55:00,
2013-02-12 01:57:00,35.0,35.0,29.09,WSW,247,6.0,8.0,100,0.00,,,0.00,Rainwise IP-100,2013-02-12 06:57:00,
2013-02-12 02:00:00,35.0,35.0,29.09,WSW,247,6.0,8.0,100,0.00,,,0.00,Rainwise IP-100,2013-02-12 07:00:00,
2013-02-12 02:01:00,35.0,35.0,29.09,West,270,6.0,8.0,100,0.00,,,0.00,Rainwise IP-100,2013-02-12 07:01:00,
2013-02-12 02:06:00,35.0,35.0,29.09,West,270,6.0,8.0,100,0.00,,,0.00,Rainwise IP-100,2013-02-12 07:06:00,
2013-02-12 02:07:00,35.0,35.0,29.09,West,270,7.0,8.0,100,0.00,,,0.00,Rainwise IP-100,2013-02-12 07:07:00,
2013-02-12 02:09:00,35.0,35.0,29.09,West,270,6.0,8.0,100,0.00,,,0.00,Rainwise IP-100,2013-02-12 07:09:00,
2013-02-12 02:13:00,35.0,35.0,29.09,West,270,2.0,8.0,100,0.00,,,0.00,Rainwise IP-100,2013-02-12 07:13:00,
2013-02-12 02:18:00,35.0,35.0,29.09,West,270,3.0,3.0,100,0.00,,,0.00,Rainwise IP-100,2013-02-12 07:18:00,
2013-02-12 02:23:00,35.0,35.0,29.09,West,270,1.0,3.0,100,0.00,,,0.00,Rainwise IP-100,2013-02-12 07:23:00,
2013-02-12 02:28:00,35.0,35.0,29.09,West,270,3.0,3.0,100,0.00,,,0.00,Rainwise IP-100,2013-02-12 07:28:00,
2013-02-12 02:33:00,35.0,35.0,29.09,West,270,1.0,3.0,100,0.00,,,0.00,Rainwise IP-100,2013-02-12 07:33:00,
2013-02-12 02:38:00,34.0,35.0,29.07,West,270,3.0,3.0,100,0.00,,,0.00,Rainwise IP-100,2013-02-12 07:38:00,
2013-02-12 02:43:00,34.0,35.0,29.07,West,270,3.0,3.0,100,0.00,,,0.00,Rainwise IP-100,2013-02-12 07:43:00,
2013-02-12 02:48:00,34.0,35.0,29.07,West,270,4.0,11.0,100,0.00,,,0.00,Rainwise IP-100,2013-02-12 07:48:00,
2013-02-12 02:53:00,34.0,35.0,29.07,West,270,4.0,11.0,100,0.00,,,0.00,Rainwise IP-100,2013-02-12 07:53:00,
2013-02-12 02:58:00,34.0,35.0,29.06,West,270,4.0,11.0,100,0.00,,,0.00,Rainwise IP-100,2013-02-12 07:58:00,
2013-02-12 03:03:00,34.0,35.0,29.06,West,270,5.0,11.0,100,0.00,,,0.00,Rainwise IP-100,2013-02-12 08:03:00,
2013-02-12 03:08:00,34.0,35.0,29.06,West,270,5.0,11.0,100,0.00,,,0.00,Rainwise IP-100,2013-02-12 08:08:00,
2013-02-12 03:13:00,34.0,35.0,29.06,West,270,5.0,11.0,100,0.00,,,0.00,Rainwise IP-100,2013-02-12 08:13:00,
2013-02-12 03:18:00,34.0,35.0,29.06,North,360,4.0,10.0,100,0.00,,,0.00,Rainwise IP-100,2013-02-12 08:18:00,
2013-02-12 03:23:00,34.0,35.0,29.06,North,360,4.0,10.0,100,0.00,,,0.00,Rainwise IP-100,2013-02-12 08:23:00,
2013-02-12 03:28:00,34.0,35.0,29.06,West,270,6.0,10.0,100,0.00,,,0.00,Rainwise IP-100,2013-02-12 08:28:00,
2013-02-12 03:33:00,34.0,35.0,29.06,West,270,6.0,8.0,100,0.00,,,0.00,Rainwise IP-100,2013-02-12 08:33:00,
2013-02-12 03:38:00,34.0,35.0,29.05,WSW,247,1.0,8.0,100,0.00,,,0.00,Rainwise IP-100,2013-02-12 08:38:00,
2013-02-12 03:43:00,34.0,35.0,29.05,WSW,247,1.0,1.0,100,0.00,,,0.00,Rainwise IP-100,2013-02-12 08:43:00,
2013-02-12 03:48:00,34.0,35.0,29.05,WSW,247,1.0,1.0,100,0.00,,,0.00,Rainwise IP-100,2013-02-12 08:48:00,
2013-02-12 03:53:00,34.0,35.0,29.05,WSW,247,0.0,1.0,100,0.00,,,0.00,Rainwise IP-100,2013-02-12 08:53:00,
2013-02-12 03:58:00,34.0,35.0,29.05,WSW,247,1.0,1.0,100,0.00,,,0.00,Rainwise IP-100,2013-02-12 08:58:00,
2013-02-12 04:03:00,34.0,35.0,29.05,WSW,247,0.0,1.0,100,0.00,,,0.00,Rainwise IP-100,2013-02-12 09:03:00,
2013-02-12 04:08:00,34.0,35.0,29.05,WSW,247,1.0,1.0,100,0.00,,,0.00,Rainwise IP-100,2013-02-12 09:08:00,
2013-02-12 04:13:00,34.0,35.0,29.05,WSW,247,1.0,1.0,100,0.00,,,0.00,Rainwise IP-100,2013-02-12 09:13:00,
2013-02-12 05:47:00,32.0,32.0,29.06,North,360,1.0,1.0,100,0.00,,,0.00,Rainwise IP-100,2013-02-12 10:47:00,
2013-02-12 05:52:00,32.0,32.0,29.07,West,270,0.0,4.0,100,0.00,,,0.00,Rainwise IP-100,2013-02-12 10:52:00,
2013-02-12 05:57:00,32.0,32.0,29.07,West,270,0.0,2.0,100,0.00,,,0.00,Rainwise IP-100,2013-02-12 10:57:00,
2013-02-12 06:02:00,32.0,32.0,29.07,West,270,0.0,0.0,100,0.00,,,0.00,Rainwise IP-100,2013-02-12 11:02:00,
2013-02-12 06:07:00,32.0,32.0,29.07,West,270,0.0,0.0,100,0.00,,,0.00,Rainwise IP-100,2013-02-12 11:07:00,
2013-02-12 06:12:00,32.0,32.0,29.07,West,270,0.0,0.0,100,0.00,,,0.00,Rainwise IP-100,2013-02-12 11:12:00,
2013-02-12 06:17:00,32.0,32.0,29.05,North,360,1.0,0.0,100,0.00,,,0.00,Rainwise IP-100,2013-02-12 11:17:00,
2013-02-12 06:22:00,32.0,32.0,29.05,West,270,4.0,4.0,100,0.00,,,0.00,Rainwise IP-100,2013-02-12 11:22:00,
2013-02-12 06:27:00,32.0,32.0,29.05,West,270,4.0,4.0,100,0.00,,,0.00,Rainwise IP-100,2013-02-12 11:27:00,
2013-02-12 06:32:00,32.0,32.0,29.05,West,270,5.0,5.0,100,0.00,,,0.00,Rainwise IP-100,2013-02-12 11:32:00,
2013-02-12 06:37:00,32.0,32.0,29.05,West,270,5.0,5.0,100,0.00,,,0.00,Rainwise IP-100,2013-02-12 11:37:00,
2013-02-12 06:42:00,32.0,32.0,29.06,North,360,0.0,5.0,100,0.00,,,0.00,Rainwise IP-100,2013-02-12 11:42:00,
2013-02-12 06:47:00,32.0,32.0,29.06,North,360,0.0,5.0,100,0.00,,,0.00,Rainwise IP-100,2013-02-12 11:47:00,
2013-02-12 06:52:00,32.0,32.0,29.06,West,270,5.0,5.0,100,0.00,,,0.00,Rainwise IP-100,2013-02-12 11:52:00,
2013-02-12 06:57:00,32.0,32.0,29.07,North,360,1.0,5.0,100,0.00,,,0.01,Rainwise IP-100,2013-02-12 11:57:00,
2013-02-12 07:02:00,32.0,32.0,29.07,North,360,2.0,5.0,100,0.06,,,0.01,Rainwise IP-100,2013-02-12 12:02:00,
2013-02-12 07:07:00,32.0,32.0,29.07,North,360,3.0,4.0,100,0.06,,,0.01,Rainwise IP-100,2013-02-12 12:07:00,
2013-02-12 07:12:00,32.0,32.0,29.07,North,360,1.0,4.0,100,0.00,,,0.01,Rainwise IP-100,2013-02-12 12:12:00,
2013-02-12 07:17:00,32.0,32.0,29.07,North,360,3.0,4.0,100,0.00,,,0.01,Rainwise IP-100,2013-02-12 12:17:00,
2013-02-12 07:22:00,33.0,33.0,29.08,North,360,0.0,4.0,100,0.00,,,0.01,Rainwise IP-100,2013-02-12 12:22:00,
2013-02-12 07:27:00,33.0,33.0,29.08,NNE,22,4.0,4.0,100,0.00,,,0.01,Rainwise IP-100,2013-02-12 12:27:00,
2013-02-12 07:32:00,33.0,33.0,29.08,North,360,2.0,5.0,100,0.00,,,0.01,Rainwise IP-100,2013-02-12 12:32:00,
2013-02-12 07:37:00,33.0,33.0,29.08,North,360,2.0,3.0,100,0.00,,,0.01,Rainwise IP-100,2013-02-12 12:37:00,
2013-02-12 07:42:00,33.0,33.0,29.08,West,270,0.0,3.0,100,0.00,,,0.01,Rainwise IP-100,2013-02-12 12:42:00,
2013-02-12 07:47:00,33.0,33.0,29.08,West,270,0.0,2.0,100,0.00,,,0.01,Rainwise IP-100,2013-02-12 12:47:00,
2013-02-12 07:52:00,33.0,33.0,29.09,West,270,3.0,4.0,100,0.00,,,0.01,Rainwise IP-100,2013-02-12 12:52:00,
2013-02-12 07:57:00,33.0,33.0,29.09,West,270,3.0,3.0,100,0.00,,,0.01,Rainwise IP-100,2013-02-12 12:57:00,
2013-02-12 08:02:00,33.0,33.0,29.09,West,270,0.0,3.0,100,0.06,,,0.02,Rainwise IP-100,2013-02-12 13:02:00,
2013-02-12 08:07:00,33.0,33.0,29.09,West,270,1.0,2.0,100,0.06,,,0.02,Rainwise IP-100,2013-02-12 13:07:00,
2013-02-12 08:12:00,33.0,33.0,29.09,West,270,2.0,6.0,100,0.00,,,0.02,Rainwise IP-100,2013-02-12 13:12:00,
2013-02-12 08:17:00,33.0,33.0,29.09,West,270,0.0,4.0,100,0.00,,,0.02,Rainwise IP-100,2013-02-12 13:17:00,
2013-02-12 08:22:00,34.0,35.0,29.09,West,270,5.0,6.0,100,0.00,,,0.02,Rainwise IP-100,2013-02-12 13:22:00,
2013-02-12 08:28:00,34.0,35.0,29.09,West,270,4.0,5.0,100,0.00,,,0.02,Rainwise IP-100,2013-02-12 13:28:00,
2013-02-12 09:12:00,36.0,36.0,29.11,North,360,5.0,5.0,100,0.00,,,0.02,Rainwise IP-100,2013-02-12 14:12:00,
2013-02-12 09:17:00,36.0,36.0,29.11,SW,225,5.0,8.0,100,0.00,,,0.02,Rainwise IP-100,2013-02-12 14:17:00,
2013-02-12 09:22:00,36.0,36.0,29.11,WSW,247,2.0,6.0,100,0.00,,,0.02,Rainwise IP-100,2013-02-12 14:22:00,
2013-02-12 09:27:00,36.0,36.0,29.11,WSW,247,2.0,5.0,100,0.00,,,0.02,Rainwise IP-100,2013-02-12 14:27:00,
2013-02-12 09:32:00,36.0,36.0,29.11,WSW,247,2.0,5.0,100,0.00,,,0.02,Rainwise IP-100,2013-02-12 14:32:00,
2013-02-12 09:37:00,36.0,36.0,29.11,WSW,247,2.0,5.0,100,0.00,,,0.02,Rainwise IP-100,2013-02-12 14:37:00,
2013-02-12 09:42:00,36.0,36.0,29.11,WSW,247,2.0,5.0,100,0.00,,,0.02,Rainwise IP-100,2013-02-12 14:42:00,
2013-02-12 10:22:00,36.0,36.0,29.11,WSW,247,2.0,5.0,100,0.00,,,0.02,Rainwise IP-100,2013-02-12 15:22:00,
2013-02-12 11:17:00,39.0,35.0,29.11,West,270,6.0,6.0,85,0.00,,,0.02,Rainwise IP-100,2013-02-12 16:17:00,
2013-02-12 11:22:00,39.0,33.0,29.12,West,270,8.0,10.0,81,0.00,,,0.02,Rainwise IP-100,2013-02-12 16:22:00,
2013-02-12 11:27:00,39.0,35.0,29.12,West,270,6.0,11.0,85,0.00,,,0.02,Rainwise IP-100,2013-02-12 16:27:00,
2013-02-12 11:32:00,39.0,35.0,29.12,West,270,9.0,14.0,82,0.00,,,0.02,Rainwise IP-100,2013-02-12 16:32:00,
2013-02-12 11:37:00,39.0,35.0,29.12,West,270,9.0,14.0,82,0.00,,,0.02,Rainwise IP-100,2013-02-12 16:37:00,
2013-02-12 11:42:00,39.0,35.0,29.12,West,270,12.0,14.0,82,0.00,,,0.02,Rainwise IP-100,2013-02-12 16:42:00,
2013-02-12 11:46:00,39.0,35.0,29.12,West,270,9.0,14.0,82,0.00,,,0.02,Rainwise IP-100,2013-02-12 16:46:00,
2013-02-12 11:51:00,40.0,33.0,29.11,West,270,7.0,16.0,76,0.00,,,0.02,Rainwise IP-100,2013-02-12 16:51:00,
2013-02-12 11:56:00,40.0,35.0,29.11,West,270,8.0,13.0,78,0.00,,,0.02,Rainwise IP-100,2013-02-12 16:56:00,
2013-02-12 12:01:00,40.0,33.0,29.11,West,270,6.0,10.0,77,0.00,,,0.02,Rainwise IP-100,2013-02-12 17:01:00,
2013-02-12 12:06:00,40.0,33.0,29.11,West,270,6.0,12.0,76,0.00,,,0.02,Rainwise IP-100,2013-02-12 17:06:00,
2013-02-12 12:11:00,40.0,35.0,29.11,West,270,4.0,11.0,80,0.00,,,0.02,Rainwise IP-100,2013-02-12 17:11:00,
2013-02-12 12:16:00,41.0,36.0,29.11,SW,225,4.0,8.0,79,0.00,,,0.02,Rainwise IP-100,2013-02-12 17:16:00,
2013-02-12 12:21:00,41.0,35.0,29.11,North,360,7.0,14.0,76,0.00,,,0.02,Rainwise IP-100,2013-02-12 17:21:00,
2013-02-12 12:26:00,40.0,32.0,29.11,West,270,12.0,16.0,73,0.00,,,0.02,Rainwise IP-100,2013-02-12 17:26:00,
2013-02-12 12:31:00,40.0,33.0,29.11,West,270,10.0,17.0,75,0.00,,,0.02,Rainwise IP-100,2013-02-12 17:31:00,
2013-02-12 12:36:00,40.0,33.0,29.11,West,270,5.0,13.0,75,0.00,,,0.02,Rainwise IP-100,2013-02-12 17:36:00,
2013-02-12 12:41:00,41.0,35.0,29.11,North,360,5.0,13.0,75,0.00,,,0.02,Rainwise IP-100,2013-02-12 17:41:00,
2013-02-12 12:46:00,41.0,33.0,29.11,West,270,10.0,11.0,73,0.00,,,0.02,Rainwise IP-100,2013-02-12 17:46:00,
2013-02-12 12:51:00,41.0,33.0,29.11,West,270,4.0,18.0,72,0.00,,,0.02,Rainwise IP-100,2013-02-12 17:51:00,
2013-02-12 12:56:00,40.0,32.0,29.11,West,270,10.0,19.0,71,0.00,,,0.02,Rainwise IP-100,2013-02-12 17:56:00,
2013-02-12 13:01:00,41.0,32.0,29.11,West,270,6.0,15.0,71,0.00,,,0.02,Rainwise IP-100,2013-02-12 18:01:00,
2013-02-12 13:06:00,41.0,32.0,29.11,West,270,10.0,14.0,71,0.00,,,0.02,Rainwise IP-100,2013-02-12 18:06:00,
2013-02-12 13:11:00,41.0,32.0,29.12,West,270,4.0,16.0,71,0.00,,,0.02,Rainwise IP-100,2013-02-12 18:11:00,
2013-02-12 13:16:00,41.0,35.0,29.12,NNE,22,3.0,11.0,75,0.00,,,0.02,Rainwise IP-100,2013-02-12 18:16:00,
2013-02-12 13:21:00,41.0,33.0,29.12,SSW,202,1.0,11.0,74,0.00,,,0.02,Rainwise IP-100,2013-02-12 18:21:00,
2013-02-12 13:26:00,41.0,33.0,29.12,West,270,5.0,12.0,72,0.00,,,0.02,Rainwise IP-100,2013-02-12 18:26:00,
2013-02-12 13:31:00,41.0,33.0,29.12,South,180,1.0,13.0,73,0.00,,,0.02,Rainwise IP-100,2013-02-12 18:31:00,
2013-02-12 13:36:00,41.0,33.0,29.12,West,270,4.0,13.0,72,0.00,,,0.02,Rainwise IP-100,2013-02-12 18:36:00,
2013-02-12 13:41:00,41.0,32.0,29.12,SSE,157,3.0,15.0,71,0.00,,,0.02,Rainwise IP-100,2013-02-12 18:41:00,
2013-02-12 13:46:00,41.0,31.0,29.12,West,270,16.0,16.0,67,0.00,,,0.02,Rainwise IP-100,2013-02-12 18:46:00,
2013-02-12 13:48:00,41.0,32.0,29.12,West,270,8.0,18.0,71,0.00,,,0.02,Rainwise IP-100,2013-02-12 18:48:00,
2013-02-12 13:53:00,41.0,32.0,29.12,West,270,10.0,10.0,71,0.00,,,0.02,Rainwise IP-100,2013-02-12 18:53:00,
2013-02-12 13:58:00,41.0,31.0,29.12,West,270,8.0,13.0,66,0.00,,,0.02,Rainwise IP-100,2013-02-12 18:58:00,
2013-02-12 14:03:00,41.0,32.0,29.13,West,270,5.0,12.0,69,0.00,,,0.02,Rainwise IP-100,2013-02-12 19:03:00,
2013-02-12 14:08:00,41.0,32.0,29.13,West,270,17.0,17.0,68,0.00,,,0.02,Rainwise IP-100,2013-02-12 19:08:00,
2013-02-12 14:13:00,42.0,33.0,29.13,West,270,16.0,17.0,70,0.00,,,0.02,Rainwise IP-100,2013-02-12 19:13:00,
2013-02-12 14:18:00,42.0,33.0,29.13,West,270,3.0,19.0,70,0.00,,,0.02,Rainwise IP-100,2013-02-12 19:18:00,
2013-02-12 14:23:00,42.0,32.0,29.13,WSW,247,10.0,14.0,65,0.00,,,0.02,Rainwise IP-100,2013-02-12 19:23:00,
2013-02-12 14:28:00,42.0,32.0,29.13,West,270,3.0,15.0,67,0.00,,,0.02,Rainwise IP-100,2013-02-12 19:28:00,
2013-02-12 14:33:00,43.0,32.0,29.13,West,270,8.0,14.0,64,0.00,,,0.02,Rainwise IP-100,2013-02-12 19:33:00,
2013-02-12 14:38:00,44.0,35.0,29.13,WSW,247,9.0,17.0,69,0.00,,,0.02,Rainwise IP-100,2013-02-12 19:38:00,
2013-02-12 14:43:00,44.0,32.0,29.13,West,270,9.0,12.0,62,0.00,,,0.02,Rainwise IP-100,2013-02-12 19:43:00,
2013-02-12 14:48:00,45.0,33.0,29.13,North,360,3.0,15.0,62,0.00,,,0.02,Rainwise IP-100,2013-02-12 19:48:00,
2013-02-12 14:53:00,44.0,32.0,29.14,West,270,4.0,14.0,61,0.00,,,0.02,Rainwise IP-100,2013-02-12 19:53:00,
2013-02-12 14:58:00,43.0,32.0,29.14,West,270,10.0,12.0,63,0.00,,,0.02,Rainwise IP-100,2013-02-12 19:58:00,
2013-02-12 15:03:00,43.0,32.0,29.14,West,270,7.0,17.0,64,0.00,,,0.02,Rainwise IP-100,2013-02-12 20:03:00,
2013-02-12 15:08:00,43.0,32.0,29.14,SE,135,3.0,14.0,64,0.00,,,0.02,Rainwise IP-100,2013-02-12 20:08:00,
2013-02-12 15:13:00,43.0,32.0,29.14,West,270,7.0,14.0,66,0.00,,,0.02,Rainwise IP-100,2013-02-12 20:13:00,
2013-02-12 15:18:00,43.0,31.0,29.14,West,270,17.0,17.0,62,0.00,,,0.02,Rainwise IP-100,2013-02-12 20:18:00,
2013-02-12 15:23:00,42.0,31.0,29.15,West,270,4.0,17.0,64,0.00,,,0.02,Rainwise IP-100,2013-02-12 20:23:00,
2013-02-12 15:28:00,42.0,32.0,29.15,NE,45,4.0,10.0,66,0.00,,,0.02,Rainwise IP-100,2013-02-12 20:28:00,
2013-02-12 15:33:00,42.0,32.0,29.15,West,270,7.0,9.0,67,0.00,,,0.02,Rainwise IP-100,2013-02-12 20:33:00,
2013-02-12 15:38:00,42.0,32.0,29.15,West,270,13.0,13.0,65,0.00,,,0.02,Rainwise IP-100,2013-02-12 20:38:00,
2013-02-12 15:43:00,42.0,32.0,29.15,West,270,6.0,13.0,67,0.00,,,0.02,Rainwise IP-100,2013-02-12 20:43:00,
2013-02-12 15:48:00,42.0,32.0,29.15,West,270,10.0,11.0,66,0.00,,,0.02,Rainwise IP-100,2013-02-12 20:48:00,
2013-02-12 15:53:00,41.0,31.0,29.15,West,270,3.0,11.0,67,0.00,,,0.02,Rainwise IP-100,2013-02-12 20:53:00,
2013-02-12 15:58:00,41.0,32.0,29.15,West,270,7.0,10.0,68,0.00,,,0.02,Rainwise IP-100,2013-02-12 20:58:00,
2013-02-12 16:03:00,41.0,32.0,29.15,West,270,5.0,13.0,68,0.00,,,0.02,Rainwise IP-100,2013-02-12 21:03:00,
2013-02-12 16:08:00,41.0,32.0,29.15,WSW,247,7.0,10.0,70,0.00,,,0.02,Rainwise IP-100,2013-02-12 21:08:00,
2013-02-12 16:13:00,41.0,32.0,29.15,West,270,7.0,10.0,70,0.00,,,0.02,Rainwise IP-100,2013-02-12 21:13:00,
2013-02-12 16:18:00,41.0,32.0,29.15,West,270,10.0,10.0,70,0.00,,,0.02,Rainwise IP-100,2013-02-12 21:18:00,
2013-02-12 16:23:00,41.0,32.0,29.15,West,270,3.0,11.0,71,0.00,,,0.02,Rainwise IP-100,2013-02-12 21:23:00,
2013-02-12 16:28:00,40.0,32.0,29.15,West,270,4.0,10.0,71,0.00,,,0.02,Rainwise IP-100,2013-02-12 21:28:00,
2013-02-12 16:33:00,40.0,32.0,29.15,West,270,6.0,11.0,70,0.00,,,0.02,Rainwise IP-100,2013-02-12 21:33:00,
2013-02-12 16:38:00,40.0,32.0,29.15,West,270,4.0,6.0,70,0.00,,,0.02,Rainwise IP-100,2013-02-12 21:38:00,
2013-02-12 16:43:00,40.0,32.0,29.15,West,270,5.0,6.0,71,0.00,,,0.02,Rainwise IP-100,2013-02-12 21:43:00,
2013-02-12 16:48:00,40.0,32.0,29.15,SSW,202,2.0,6.0,71,0.00,,,0.02,Rainwise IP-100,2013-02-12 21:48:00,
2013-02-12 16:53:00,40.0,32.0,29.15,West,270,6.0,10.0,70,0.00,,,0.02,Rainwise IP-100,2013-02-12 21:53:00,
2013-02-12 16:58:00,40.0,32.0,29.15,West,270,6.0,9.0,70,0.00,,,0.02,Rainwise IP-100,2013-02-12 21:58:00,
2013-02-12 17:03:00,40.0,32.0,29.15,West,270,3.0,9.0,71,0.00,,,0.02,Rainwise IP-100,2013-02-12 22:03:00,
2013-02-12 17:08:00,39.0,31.0,29.15,West,270,3.0,10.0,71,0.00,,,0.02,Rainwise IP-100,2013-02-12 22:08:00,
2013-02-12 17:11:00,39.0,31.0,29.15,West,270,5.0,9.0,71,0.00,,,0.02,Rainwise IP-100,2013-02-12 22:11:00,
2013-02-12 17:16:00,39.0,31.0,29.15,West,270,5.0,5.0,71,0.00,,,0.02,Rainwise IP-100,2013-02-12 22:16:00,
2013-02-12 17:21:00,39.0,31.0,29.15,West,270,5.0,5.0,71,0.00,,,0.02,Rainwise IP-100,2013-02-12 22:21:00,
2013-02-12 17:26:00,39.0,31.0,29.15,West,270,5.0,5.0,71,0.00,,,0.02,Rainwise IP-100,2013-02-12 22:26:00,
2013-02-12 17:31:00,39.0,31.0,29.15,West,270,5.0,5.0,71,0.00,,,0.02,Rainwise IP-100,2013-02-12 22:31:00,
2013-02-12 17:36:00,39.0,31.0,29.15,West,270,5.0,5.0,71,0.00,,,0.02,Rainwise IP-100,2013-02-12 22:36:00,
2013-02-12 17:41:00,39.0,31.0,29.15,West,270,5.0,5.0,71,0.00,,,0.02,Rainwise IP-100,2013-02-12 22:41:00,
2013-02-12 17:46:00,39.0,31.0,29.15,West,270,5.0,5.0,71,0.00,,,0.02,Rainwise IP-100,2013-02-12 22:46:00,
2013-02-12 17:51:00,39.0,31.0,29.15,West,270,5.0,5.0,71,0.00,,,0.02,Rainwise IP-100,2013-02-12 22:51:00,
2013-02-12 17:56:00,39.0,31.0,29.15,West,270,5.0,5.0,71,0.00,,,0.02,Rainwise IP-100,2013-02-12 22:56:00,
2013-02-12 18:01:00,39.0,31.0,29.15,West,270,5.0,5.0,71,0.00,,,0.02,Rainwise IP-100,2013-02-12 23:01:00,
2013-02-12 18:06:00,39.0,31.0,29.15,West,270,5.0,5.0,71,0.00,,,0.02,Rainwise IP-100,2013-02-12 23:06:00,
2013-02-12 18:11:00,39.0,31.0,29.15,West,270,5.0,5.0,71,0.00,,,0.02,Rainwise IP-100,2013-02-12 23:11:00,
2013-02-12 18:16:00,39.0,31.0,29.15,West,270,5.0,5.0,71,0.00,,,0.02,Rainwise IP-100,2013-02-12 23:16:00,
2013-02-12 18:21:00,39.0,31.0,29.15,West,270,5.0,5.0,71,0.00,,,0.02,Rainwise IP-100,2013-02-12 23:21:00,
2013-02-12 18:26:00,39.0,31.0,29.15,West,270,5.0,5.0,71,0.00,,,0.02,Rainwise IP-100,2013-02-12 23:26:00,
2013-02-12 18:31:00,38.0,31.0,29.18,West,270,1.0,8.0,75,0.00,,,0.02,Rainwise IP-100,2013-02-12 23:31:00,
2013-02-12 18:36:00,37.0,31.0,29.18,West,270,3.0,8.0,77,0.00,,,0.02,Rainwise IP-100,2013-02-12 23:36:00,
2013-02-12 18:41:00,38.0,31.0,29.19,West,270,1.0,5.0,75,0.00,,,0.02,Rainwise IP-100,2013-02-12 23:41:00,
2013-02-12 18:46:00,38.0,31.0,29.19,West,270,3.0,4.0,75,0.00,,,0.02,Rainwise IP-100,2013-02-12 23:46:00,
2013-02-12 18:51:00,38.0,31.0,29.19,West,270,5.0,5.0,76,0.00,,,0.02,Rainwise IP-100,2013-02-12 23:51:00,
2013-02-12 18:56:00,38.0,31.0,29.19,West,270,10.0,10.0,75,0.00,,,0.02,Rainwise IP-100,2013-02-12 23:56:00,
2013-02-12 19:01:00,38.0,31.0,29.19,West,270,8.0,10.0,73,0.00,,,0.02,Rainwise IP-100,2013-02-13 00:01:00,
2013-02-12 19:06:00,38.0,29.0,29.19,North,360,4.0,13.0,71,0.00,,,0.02,Rainwise IP-100,2013-02-13 00:06:00,
2013-02-12 19:11:00,39.0,31.0,29.19,West,270,5.0,10.0,71,0.00,,,0.02,Rainwise IP-100,2013-02-13 00:11:00,
2013-02-12 19:16:00,39.0,31.0,29.19,West,270,8.0,11.0,71,0.00,,,0.02,Rainwise IP-100,2013-02-13 00:16:00,
2013-02-12 19:21:00,39.0,31.0,29.20,West,270,4.0,10.0,70,0.00,,,0.02,Rainwise IP-100,2013-02-13 00:21:00,
2013-02-12 19:26:00,38.0,29.0,29.20,WSW,247,5.0,8.0,71,0.00,,,0.02,Rainwise IP-100,2013-02-13 00:26:00,
2013-02-12 19:31:00,38.0,29.0,29.21,West,270,5.0,8.0,71,0.00,,,0.02,Rainwise IP-100,2013-02-13 00:31:00,
2013-02-12 19:36:00,39.0,31.0,29.21,SW,225,6.0,15.0,70,0.00,,,0.02,Rainwise IP-100,2013-02-13 00:36:00,
2013-02-12 19:41:00,39.0,31.0,29.21,West,270,13.0,15.0,70,0.00,,,0.02,Rainwise IP-100,2013-02-13 00:41:00,
2013-02-12 19:46:00,39.0,31.0,29.21,West,270,7.0,17.0,70,0.00,,,0.02,Rainwise IP-100,2013-02-13 00:46:00,
2013-02-12 19:51:00,39.0,31.0,29.21,West,270,7.0,11.0,70,0.00,,,0.02,Rainwise IP-100,2013-02-13 00:51:00,
2013-02-12 19:56:00,38.0,29.0,29.21,West,270,10.0,12.0,70,0.00,,,0.02,Rainwise IP-100,2013-02-13 00:56:00,
2013-02-12 20:01:00,38.0,29.0,29.21,West,270,3.0,10.0,71,0.00,,,0.02,Rainwise IP-100,2013-02-13 01:01:00,
2013-02-12 20:06:00,38.0,29.0,29.21,West,270,7.0,12.0,70,0.00,,,0.02,Rainwise IP-100,2013-02-13 01:06:00,
2013-02-12 20:11:00,38.0,29.0,29.21,WSW,247,3.0,14.0,71,0.00,,,0.02,Rainwise IP-100,2013-02-13 01:11:00,
2013-02-12 20:16:00,38.0,29.0,29.21,West,270,10.0,16.0,71,0.00,,,0.02,Rainwise IP-100,2013-02-13 01:16:00,
2013-02-12 20:21:00,38.0,29.0,29.23,SW,225,13.0,13.0,71,0.00,,,0.02,Rainwise IP-100,2013-02-13 01:21:00,
2013-02-12 20:26:00,38.0,29.0,29.23,West,270,6.0,14.0,71,0.00,,,0.02,Rainwise IP-100,2013-02-13 01:26:00,
2013-02-12 20:31:00,38.0,31.0,29.23,West,270,5.0,14.0,72,0.00,,,0.02,Rainwise IP-100,2013-02-13 01:31:00,
2013-02-12 20:36:00,38.0,31.0,29.23,West,270,7.0,14.0,72,0.00,,,0.02,Rainwise IP-100,2013-02-13 01:36:00,
2013-02-12 20:41:00,38.0,31.0,29.23,West,270,4.0,13.0,73,0.00,,,0.02,Rainwise IP-100,2013-02-13 01:41:00,
2013-02-12 20:46:00,38.0,31.0,29.23,West,270,6.0,15.0,73,0.00,,,0.02,Rainwise IP-100,2013-02-13 01:46:00,
2013-02-12 20:51:00,38.0,31.0,29.23,West,270,7.0,16.0,73,0.00,,,0.02,Rainwise IP-100,2013-02-13 01:51:00,
2013-02-12 20:56:00,38.0,31.0,29.23,West,270,4.0,17.0,73,0.00,,,0.02,Rainwise IP-100,2013-02-13 01:56:00,
2013-02-12 21:01:00,38.0,31.0,29.23,West,270,6.0,12.0,73,0.00,,,0.02,Rainwise IP-100,2013-02-13 02:01:00,
2013-02-12 21:06:00,37.0,31.0,29.23,West,270,7.0,14.0,75,0.00,,,0.02,Rainwise IP-100,2013-02-13 02:06:00,
2013-02-12 21:11:00,37.0,29.0,29.24,North,360,9.0,9.0,74,0.00,,,0.02,Rainwise IP-100,2013-02-13 02:11:00,
2013-02-12 21:16:00,37.0,31.0,29.24,West,270,5.0,14.0,75,0.00,,,0.02,Rainwise IP-100,2013-02-13 02:16:00,
2013-02-12 21:21:00,37.0,31.0,29.25,West,270,11.0,11.0,75,0.00,,,0.02,Rainwise IP-100,2013-02-13 02:21:00,
2013-02-12 21:26:00,37.0,31.0,29.25,North,360,2.0,15.0,76,0.00,,,0.02,Rainwise IP-100,2013-02-13 02:26:00,
2013-02-12 21:31:00,37.0,31.0,29.25,WSW,247,6.0,8.0,76,0.00,,,0.02,Rainwise IP-100,2013-02-13 02:31:00,
2013-02-12 21:36:00,37.0,31.0,29.25,WSW,247,10.0,10.0,76,0.00,,,0.02,Rainwise IP-100,2013-02-13 02:36:00,
2013-02-12 21:41:00,37.0,31.0,29.25,West,270,5.0,10.0,76,0.00,,,0.02,Rainwise IP-100,2013-02-13 02:41:00,
2013-02-12 21:46:00,37.0,31.0,29.25,West,270,5.0,10.0,76,0.00,,,0.02,Rainwise IP-100,2013-02-13 02:46:00,
2013-02-12 21:51:00,37.0,31.0,29.25,West,270,4.0,8.0,76,0.00,,,0.02,Rainwise IP-100,2013-02-13 02:51:00,
2013-02-12 21:56:00,37.0,31.0,29.26,West,270,6.0,7.0,76,0.00,,,0.02,Rainwise IP-100,2013-02-13 02:56:00,
2013-02-12 22:01:00,37.0,31.0,29.26,West,270,5.0,7.0,77,0.00,,,0.02,Rainwise IP-100,2013-02-13 03:01:00,
2013-02-12 22:06:00,36.0,29.0,29.26,West,270,5.0,7.0,77,0.00,,,0.02,Rainwise IP-100,2013-02-13 03:06:00,
2013-02-12 22:11:00,36.0,29.0,29.26,North,360,3.0,6.0,77,0.00,,,0.02,Rainwise IP-100,2013-02-13 03:11:00,
2013-02-12 22:16:00,37.0,31.0,29.27,West,270,5.0,10.0,76,0.00,,,0.02,Rainwise IP-100,2013-02-13 03:16:00,
2013-02-12 22:21:00,37.0,31.0,29.28,West,270,6.0,12.0,76,0.00,,,0.02,Rainwise IP-100,2013-02-13 03:21:00,
2013-02-12 22:26:00,37.0,31.0,29.28,West,270,6.0,12.0,76,0.00,,,0.02,Rainwise IP-100,2013-02-13 03:26:00,
2013-02-12 22:31:00,37.0,31.0,29.28,West,270,5.0,9.0,76,0.00,,,0.02,Rainwise IP-100,2013-02-13 03:31:00,
2013-02-12 22:36:00,37.0,31.0,29.28,West,270,5.0,9.0,76,0.00,,,0.02,Rainwise IP-100,2013-02-13 03:36:00,
2013-02-12 22:41:00,37.0,31.0,29.28,West,270,5.0,8.0,76,0.00,,,0.02,Rainwise IP-100,2013-02-13 03:41:00,
2013-02-12 22:46:00,37.0,31.0,29.29,West,270,6.0,9.0,75,0.00,,,0.02,Rainwise IP-100,2013-02-13 03:46:00,
2013-02-12 22:51:00,37.0,31.0,29.29,West,270,6.0,9.0,76,0.00,,,0.02,Rainwise IP-100,2013-02-13 03:51:00,
2013-02-12 22:56:00,37.0,31.0,29.29,West,270,5.0,10.0,75,0.00,,,0.02,Rainwise IP-100,2013-02-13 03:56:00,
2013-02-12 23:02:00,37.0,29.0,29.30,West,270,5.0,9.0,74,0.00,,,0.02,Rainwise IP-100,2013-02-13 04:02:00,
2013-02-12 23:07:00,37.0,31.0,29.30,West,270,4.0,10.0,75,0.00,,,0.02,Rainwise IP-100,2013-02-13 04:07:00,
2013-02-12 23:12:00,37.0,31.0,29.30,West,270,4.0,10.0,75,0.00,,,0.02,Rainwise IP-100,2013-02-13 04:12:00,
2013-02-12 23:17:00,37.0,31.0,29.30,West,270,4.0,5.0,75,0.00,,,0.02,Rainwise IP-100,2013-02-13 04:17:00,
2013-02-12 23:22:00,37.0,31.0,29.30,West,270,4.0,5.0,75,0.00,,,0.02,Rainwise IP-100,2013-02-13 04:22:00,
2013-02-12 23:27:00,37.0,31.0,29.29,West,270,7.0,11.0,76,0.00,,,0.02,Rainwise IP-100,2013-02-13 04:27:00,
2013-02-12 23:29:00,37.0,31.0,29.29,West,270,3.0,11.0,76,0.00,,,0.02,Rainwise IP-100,2013-02-13 04:29:00,
2013-02-12 23:34:00,37.0,31.0,29.29,West,270,3.0,4.0,76,0.00,,,0.02,Rainwise IP-100,2013-02-13 04:34:00,
2013-02-12 23:39:00,37.0,31.0,29.29,West,270,2.0,4.0,77,0.00,,,0.02,Rainwise IP-100,2013-02-13 04:39:00,
2013-02-12 23:44:00,37.0,31.0,29.29,West,270,2.0,3.0,77,0.00,,,0.02,Rainwise IP-100,2013-02-13 04:44:00,
2013-02-12 23:49:00,37.0,31.0,29.29,West,270,2.0,3.0,77,0.00,,,0.02,Rainwise IP-100,2013-02-13 04:49:00,
2013-02-12 23:54:00,37.0,31.0,29.29,West,270,2.0,3.0,77,0.00,,,0.02,Rainwise IP-100,2013-02-13 04:54:00,
2013-02-12 23:59:00,36.0,29.0,29.29,West,270,6.0,6.0,76,0.00,,,0.02,Rainwise IP-100,2013-02-13 04:59:00,